Location: Alexandria
(38.8050°N, 77.0470°W)
Time: 20:10:56

KAITUO 1B - Pass Details

Date: 27 February 2018
Orbit: 500 x 520 km, 97.5° (Epoch: 23 March)

Event Time Altitude Azimuth Distance (km) Brightness Sun altitude
Rises 05:48:46 0° 24° (NNE) 2,623 ? -11.4°
Reaches altitude 10° 05:51:06 10° 37° (NE) 1,736 ? -11.0°
Maximum altitude 05:54:20 27° 97° (E) 1,004 ? -10.3°
Drops below altitude 10° 05:57:33 10° 156° (SSE) 1,734 ? -9.7°
Sets 05:59:52 0° 169° (SSE) 2,619 ? -9.3°
